Weather History for KDTS - March, 2013

Change the Weather History Date:

Tuesday, March 26, 2013

  Actual Average Record
Temperature  
Mean Temperature 48 °F -  
Max Temperature 57 °F 67 °F 78 °F (2012)
Min Temperature 39 °F 53 °F 39 °F (2013)
Degree Days  
Heating Degree Days 17    
Moisture  
Dew Point 24 °F    
Average Humidity 39    
Maximum Humidity 55    
Minimum Humidity 26    
Precipitation  
Precipitation 0.00 in - - ()
Sea Level Pressure  
Sea Level Pressure 30.26 in    
Wind  
Wind Speed 12 mph (NNW)    
Max Wind Speed 17 mph    
Max Gust Speed 24 mph    
Visibility 10 miles    
Events      
Averages and records for this station are not official NWS values.
T = Trace of Precipitation, MM = Missing Value Source: NWS Daily Summary

Daily Weather History Graph

Daily Weather History Graph

Search for Another Location

Airport or City:

Trip Planner

Search our weather history database for the weather conditions in past years. The results will help you decide how hot, cold, wet, or windy it might be!

Date:

Astronomy

Mar. 26, 2013 Rise Set
Actual Time 6:42 AM CDT 7:01 PM CDT
Civil Twilight 6:17 AM CDT 7:25 PM CDT
Nautical Twilight 5:49 AM CDT 7:53 PM CDT
Astronomical Twilight 5:21 AM CDT 8:21 PM CDT
Moon 6:36 PM CDT (3/26) 5:57 AM CDT (3/26)
Length of Visible Light 13h 07m
Length of Day
12h 19m
Waxing Gibbous, 99% of the Moon is Illuminated
Mar 26
Waxing Gibbous
Mar 27
Full
Apr 2
Last Quarter
Apr 10
New
Apr 18
First Quarter

Hourly Weather History & Observations

Time (CDT) Temp. Windchill Dew Point Humidity Pressure Visibility Wind Dir Wind Speed Gust Speed Precip Events Conditions
12:53 AM 46.0 °F 41.0 °F 23.0 °F 40% 30.21 in 10.0 mi NNW 10.4 mph 19.6 mph N/A   Clear
1:53 AM 45.0 °F 38.9 °F 24.1 °F 44% 30.22 in 10.0 mi NNW 12.7 mph 20.7 mph N/A   Clear
2:53 AM 43.0 °F 37.2 °F 23.0 °F 45% 30.22 in 10.0 mi North 10.4 mph - N/A   Clear
3:53 AM 43.0 °F 35.7 °F 23.0 °F 45% 30.22 in 10.0 mi NNW 15.0 mph 23.0 mph N/A   Clear
4:53 AM 42.1 °F 34.5 °F 24.1 °F 49% 30.22 in 10.0 mi NNW 15.0 mph - N/A   Clear
5:53 AM 39.9 °F 32.1 °F 24.1 °F 53% 30.25 in 10.0 mi NW 13.8 mph 19.6 mph N/A   Clear
6:53 AM 39.9 °F 32.9 °F 25.0 °F 55% 30.28 in 10.0 mi NW 11.5 mph 18.4 mph N/A   Clear
7:53 AM 41.0 °F 33.5 °F 24.1 °F 51% 30.29 in 10.0 mi NNW 13.8 mph 19.6 mph N/A   Clear
8:53 AM 43.0 °F 35.7 °F 23.0 °F 45% 30.30 in 10.0 mi North 15.0 mph 20.7 mph N/A   Clear
9:53 AM 46.0 °F 39.0 °F 19.9 °F 35% 30.31 in 10.0 mi NNW 17.3 mph 23.0 mph N/A   Clear
10:53 AM 48.0 °F - 21.0 °F 34% 30.30 in 10.0 mi North 12.7 mph - N/A   Clear
11:53 AM 50.0 °F - 21.9 °F 33% 30.29 in 10.0 mi NNW 11.5 mph 21.9 mph N/A   Clear
12:53 PM 51.1 °F - 21.0 °F 31% 30.27 in 10.0 mi NW 8.1 mph 18.4 mph N/A   Clear
1:53 PM 53.1 °F - 21.0 °F 29% 30.25 in 10.0 mi NW 8.1 mph 19.6 mph N/A   Clear
2:53 PM 57.0 °F - 23.0 °F 27% 30.23 in 10.0 mi Variable 6.9 mph 17.3 mph N/A   Clear
3:53 PM 57.0 °F - 21.9 °F 26% 30.22 in 10.0 mi NNW 15.0 mph 19.6 mph N/A   Clear
4:53 PM 57.0 °F - 21.9 °F 26% 30.21 in 10.0 mi NNW 16.1 mph 24.2 mph N/A   Clear
5:53 PM 55.9 °F - 23.0 °F 28% 30.22 in 10.0 mi North 12.7 mph - N/A   Clear
6:53 PM 54.0 °F - 24.1 °F 31% 30.24 in 10.0 mi NNW 11.5 mph - N/A   Clear
7:53 PM 52.0 °F - 24.1 °F 34% 30.27 in 10.0 mi NNW 12.7 mph - N/A   Clear
8:53 PM 48.9 °F - 26.1 °F 41% 30.30 in 10.0 mi North 13.8 mph 21.9 mph N/A   Clear
9:53 PM 48.0 °F - 27.0 °F 44% 30.33 in 10.0 mi North 12.7 mph - N/A   Clear
10:53 PM 46.0 °F 39.9 °F 27.0 °F 47% 30.35 in 10.0 mi North 13.8 mph 21.9 mph N/A   Clear
11:53 PM 45.0 °F 39.7 °F 28.0 °F 52% 30.35 in 10.0 mi North 10.4 mph - N/A   Clear